{"data":{"norad_id":59387,"intl_designator":"2024-062P","name":"STARLINK-31714","alt_names":[],"object_type":"PAYLOAD","status":"ACTIVE","operator":null,"country":"US","launch_date":"2024-04-02","launch_site_code":"AFWTR","launch_vehicle":null,"mission":null,"orbit_class":"UNKNOWN","rcs_meters":null,"size_class":null,"mass_kg":null,"dimensions":null,"purposes":["comms"],"wikipedia_slug":null,"has_3d_model":false,"image_url":null,"decayed_at":null,"tle_current":{"epoch":"2026-05-24T16:13:31.416384Z","epoch_age_seconds":113419,"freshness":"FRESH","line1":"1 59387U 24062P   26144.67605806  .00009112  00000+0  28798-3 0  9990","line2":"2 59387  53.1583 262.8288 0002425  79.6843 280.4433 15.33557415121259","mean_motion":15.33557415,"eccentricity":0.0002425,"inclination_deg":53.1583,"raan_deg":262.8288,"arg_perigee_deg":79.6843,"mean_anomaly_deg":280.4433,"bstar":0.00028798,"rev_number":12125,"period_min":93.899321011075,"perigee_km":463.54921562156,"apogee_km":466.86823829914,"semimajor_km":6843.3457269603,"source":"CELESTRAK","updated_at":"2026-05-25T13:38:18.934913Z"}}}